Retour au catalogue

COSMOS 1275 DEB

ActifPO
NORAD 39951·DEBRIS·🇷🇺 Russia

Lancé Jun 4, 1981 depuis Plesetsk Cosmodrome

Loading…

Prochains Passages (prochaines 24 heures)

TLE

FraisSource: Space-Track

Époque: Sep 11, 2026, 01:48 UTC

1 39951U 81053NM  26254.07545848  .00002078  00000-0  94334-3 0  9997
2 39951  82.8219 126.6297 0056423 297.6167  61.9292 14.20623695629352

Suivez COSMOS 1275 DEB en temps réel avec AllMySat

Download on the App Store